Location: St. Louis
(38.6270°N, 90.1994°W)
Time: 08:11:03
(UTC-06:00)

SR - Pass Details

Date: 04 December 2021
Orbit: 582 x 872 km, 66.7° (Epoch: 21 January)

Event Time Altitude Azimuth Distance (km) Brightness Sun altitude
Rises 23:22:07 0° 222° (SW) 3,014 - -72.6°
Reaches altitude 10° 23:24:35 10° 229° (SW) 2,058 - -72.8°
Maximum altitude 23:29:00 44° 302° (WNW) 860 - -73.1°
Drops below altitude 10° 23:33:11 10° 15° (NNE) 1,946 - -73.3°
Sets 23:35:28 0° 23° (NNE) 2,831 - -73.4°
